EW1898 Weather Reports


time (UTC)temp
F
wind
direction
speed
knots
gust
knots
rain 1hr
in
rain 24hr
in
rain mn
in
humidity
%
barometer
mb
20260901070134 66 308 0.0 0.0 0.00 0.00 0.00 83 1017.2
20260901064608 66 308 0.0 0.0 0.00 0.00 0.00 84 1017.3
20260901063103 66 308 0.0 0.0 0.00 0.00 0.00 84 1017.3
20260901061607 67 308 0.0 0.0 0.00 0.00 0.00 84 1017.3
20260901060055 67 308 0.0 0.0 0.00 0.00 0.00 85 1017.4
20260901054554 67 308 0.0 0.0 0.00 0.00 0.00 86 1017.5
20260901053107 67 308 0.0 0.0 0.00 0.00 0.00 87 1017.4
20260901051553 67 308 0.0 0.0 0.00 0.00 0.00 88 1017.5
20260901050052 67 308 0.0 0.0 0.00 0.00 0.00 88 1017.4
20260901044610 67 308 0.0 0.0 0.00 0.00 0.00 87 1017.5
20260901043050 67 308 0.0 0.0 0.00 0.00 0.00 87 1017.5
20260901041548 67 308 0.0 0.0 0.00 0.00 0.00 86 1017.6
20260901040057 67 308 0.0 0.0 0.00 0.00 0.00 86 1017.4
20260901034545 67 308 0.0 0.0 0.00 0.00 0.00 84 1017.5
20260901033046 67 308 0.0 0.0 0.00 0.00 0.00 83 1017.5
20260901031545 67 308 0.0 0.0 0.00 0.00 0.00 82 1017.6
20260901030044 67 308 0.0 0.0 0.00 0.00 0.00 82 1017.6
20260901024549 67 308 0.0 0.0 0.00 0.00 0.00 81 1017.4
20260901023047 67 307 0.0 0.0 0.00 0.00 0.00 81 1017.4
20260901021603 68 307 0.0 0.0 0.00 0.00 0.00 79 1017.3
20260901020041 68 307 0.0 0.0 0.00 0.00 0.00 79 1017.4
20260901014541 68 307 0.0 0.0 0.00 0.00 0.00 77 1017.5
20260901013042 68 307 0.0 0.9 0.00 0.00 0.00 76 1017.5
20260901011539 68 307 0.0 0.0 0.00 0.00 0.00 76 1017.6
20260901010041 69 307 0.0 0.9 0.00 0.00 0.00 76 1017.6
20260901004538 69 307 0.0 0.0 0.00 0.00 0.00 75 1017.6
20260901003039 69 307 0.0 0.9 0.00 0.00 0.00 74 1017.5
20260901001540 70 307 0.0 0.9 0.00 0.00 0.00 74 1017.4
20260901000039 70 307 0.0 0.0 0.00 0.00 0.00 73 1017.4
20260831234536 70 307 0.0 0.0 0.00 0.00 0.00 72 1017.4
20260831233035 71 307 0.0 0.0 0.00 0.00 0.00 71 1017.5
20260831231553 72 307 0.0 0.0 0.00 0.00 0.00 69 1017.5
20260831230038 74 307 0.0 0.0 0.00 0.00 0.00 66 1017.6
20260831224549 75 307 0.0 0.9 0.00 0.00 0.00 63 1017.8
20260831223034 75 307 0.0 1.7 0.00 0.00 0.00 63 1017.8
20260831221542 76 292 0.9 3.5 0.00 0.00 0.00 62 1017.8
20260831220036 76 312 0.9 2.6 0.00 0.00 0.00 60 1017.7
20260831214540 75 308 0.0 3.5 0.00 0.00 0.00 61 1017.7
20260831213031 76 356 0.0 2.6 0.00 0.00 0.00 59 1017.6
20260831211531 76 303 0.9 4.3 0.00 0.00 0.00 57 1018.0
20260831210033 76 315 0.9 4.3 0.00 0.00 0.00 58 1018.0
20260831204534 76 310 0.0 4.3 0.00 0.00 0.00 57 1018.0
20260831203035 77 307 0.9 4.3 0.00 0.00 0.00 55 1018.0
20260831201531 77 307 1.7 3.5 0.00 0.00 0.00 54 1017.9
20260831200028 77 314 1.7 5.2 0.00 0.00 0.00 56 1018.1
20260831194525 77 316 0.9 7.0 0.00 0.00 0.00 56 1018.3
20260831193037 77 313 1.7 4.3 0.00 0.00 0.00 54 1018.2
20260831191537 76 317 0.0 4.3 0.00 0.00 0.00 54 1018.3
20260831190020 75 310 0.0 4.3 0.00 0.00 0.00 55 1018.6
20260831184518 75 298 0.0 2.6 0.00 0.00 0.00 56 1018.6
20260831183026 75 290 0.9 2.6 0.00 0.00 0.00 52 1018.8
20260831181517 75 303 0.0 1.7 0.00 0.00 0.00 52 1019.0
20260831180015 74 307 0.0 2.6 0.00 0.00 0.00 51 1019.1
20260831174513 74 305 0.0 2.6 0.00 0.00 0.00 55 1019.1
20260831173012 74 300 0.0 3.5 0.00 0.00 0.00 53 1019.3
20260831171511 73 291 0.0 4.3 0.00 0.00 0.00 50 1019.5
20260831170010 73 289 0.0 4.3 0.00 0.00 0.00 47 1019.5
20260831164509 73 293 0.9 3.5 0.00 0.00 0.00 52 1019.7
20260831163013 73 299 0.0 5.2 0.00 0.00 0.00 53 1019.8
20260831161507 73 300 0.0 1.7 0.00 0.00 0.00 55 1020.0
20260831160006 73 284 0.0 1.7 0.00 0.00 0.00 56 1020.0
20260831154505 73 258 0.0 0.9 0.00 0.00 0.00 56 1020.1
20260831153005 72 303 0.0 1.7 0.00 0.00 0.00 56 1020.1
20260831151504 72 299 1.7 3.5 0.00 0.00 0.00 56 1020.3
20260831150008 73 252 0.0 1.7 0.00 0.00 0.00 55 1020.4
20260831144501 71 300 0.0 2.6 0.00 0.00 0.00 58 1020.5
20260831143004 71 290 0.9 2.6 0.00 0.00 0.00 57 1020.5
20260831141601 70 298 0.0 2.6 0.00 0.00 0.00 60 1020.6
20260831134601 71 303 0.0 1.7 0.00 0.00 0.00 59 1020.4
20260831133056 72 348 0.0 0.9 0.00 0.00 0.00 57 1020.3
20260831131607 70 287 0.0 1.7 0.00 0.00 0.00 61 1020.3
20260831130106 70 118 0.0 3.5 0.00 0.00 0.00 62 1020.3
20260831124558 69 265 0.0 0.9 0.00 0.00 0.00 67 1020.3
20260831123051 67 165 0.0 2.6 0.00 0.00 0.00 69 1020.3
20260831121551 65 156 0.0 0.9 0.00 0.00 0.00 78 1020.1
20260831120046 62 151 0.0 0.9 0.00 0.00 0.00 83 1020.0
20260831114543 61 137 0.0 0.0 0.00 0.00 0.00 84 1019.9
20260831113042 61 137 0.0 0.0 0.00 0.00 0.00 84 1019.8
20260831111540 60 136 0.0 0.0 0.00 0.00 0.00 85 1019.7
20260831110039 60 136 0.0 1.7 0.00 0.00 0.00 84 1019.6
20260831104538 59 267 0.0 0.9 0.00 0.00 0.00 86 1019.6
20260831103039 59 267 0.0 0.9 0.00 0.00 0.00 88 1019.4
20260831101535 59 288 0.0 0.0 0.00 0.00 0.00 89 1019.3
20260831100046 59 288 0.0 0.0 0.00 0.00 0.00 88 1019.3
20260831094530 60 288 0.0 0.0 0.00 0.00 0.00 87 1019.0
20260831093038 61 289 0.0 0.9 0.00 0.00 0.00 87 1018.8
20260831091522 62 288 0.0 0.9 0.00 0.00 0.00 85 1018.5
20260831090020 62 289 0.0 0.9 0.00 0.00 0.00 86 1018.3
20260831084519 61 288 0.0 0.0 0.00 0.00 0.00 89 1018.3
20260831083018 61 289 0.0 0.0 0.00 0.00 0.00 92 1018.2
20260831081515 62 288 0.0 0.0 0.00 0.00 0.00 92 1018.1
20260831080014 62 288 0.0 0.0 0.00 0.00 0.00 91 1018.1
20260831074510 63 288 0.0 0.0 0.00 0.00 0.00 90 1017.8
20260831073009 63 288 0.0 0.0 0.00 0.00 0.00 89 1017.8
20260831071505 64 288 0.0 0.0 0.00 0.00 0.00 88 1017.7